This is the latest recevied weather packets stored in our database for station/object N6ZHV-13. If no packets are shown the sender has not sent any weather packets the latest 10 day(s).
| Time | Temp. | Humidity | Pressure | Rain* | Wind** | Luminosity | Snow |
|---|---|---|---|---|---|---|---|
| 1788468424 | 26.11° C | 55% | 1008.6 hPa | 0 mm | - | - | - |
| 1788468123 | 25.56° C | 58% | 1008.6 hPa | 0 mm | - | - | - |
| 1788467824 | 25.56° C | 58% | 1008.8 hPa | 0 mm | - | - | - |
| 1788467524 | 25.56° C | 56% | 1008.8 hPa | 0 mm | - | - | - |
| 1788467224 | 25.56° C | 57% | 1008.9 hPa | 0 mm | - | - | - |
| 1788466924 | 25.56° C | 57% | 1008.9 hPa | 0 mm | - | - | - |
| 1788466624 | 25.56° C | 57% | 1009 hPa | 0 mm | - | - | - |
| 1788466324 | 25.56° C | 57% | 1009 hPa | 0 mm | - | - | - |
| 1788466024 | 26.67° C | 54% | 1009 hPa | 0 mm | - | - | - |
| 1788465724 | 26.11° C | 48% | 1009.1 hPa | 0 mm | - | - | - |
| 1788465424 | 26.11° C | 50% | 1009.1 hPa | 0 mm | - | - | - |
| 1788465124 | 25.56° C | 49% | 1009.2 hPa | 0 mm | - | - | - |
| 1788464824 | 25.56° C | 48% | 1009.2 hPa | 0 mm | - | - | - |
| 1788464524 | 25.56° C | 48% | 1009.3 hPa | 0 mm | - | - | - |
| 1788464224 | 25.56° C | 51% | 1009.3 hPa | 0 mm | - | - | - |
| 1788463924 | 25° C | 50% | 1009.4 hPa | 0 mm | - | - | - |
| 1788463624 | 25.56° C | 50% | 1009.5 hPa | 0 mm | - | - | - |
| 1788463324 | 25.56° C | 52% | 1009.3 hPa | 0 mm | - | - | - |
| 1788463024 | 25° C | 53% | 1009.7 hPa | 0 mm | - | - | - |
| 1788462724 | 25° C | 51% | 1009.9 hPa | 0 mm | - | - | - |
| 1788462424 | 24.44° C | 54% | 1009.8 hPa | 0 mm | - | - | - |
| 1788462124 | 24.44° C | 54% | 1009.9 hPa | 0 mm | - | - | - |
| 1788461824 | 24.44° C | 55% | 1010 hPa | 0 mm | - | - | - |
| 1788461524 | 24.44° C | 55% | 1010.1 hPa | 0 mm | - | - | - |
| 1788461224 | 24.44° C | 54% | 1010.1 hPa | 0 mm | - | - | - |
* Rain latest hour (hover to see other rain measurements)
** Current wind speed in m/s (hover to see current wind gust speed)